Hourly Data Report for October 01, 2014

All times are specified in Local Standard Time (LST). Add 1 hour to adjust for Daylight Saving Time where and when it is observed.

CAPE DORSET A
NUNAVUT

64°13'49.000" N
76°31'30.000" W
48.20 m
2400637
71366
YTE

Download Data

Hourly Data (October 2014)
Hourly Data Report for October 1, 2014
Temp Definition
°C
Dew Point Temp Definition
°C
Rel Hum Definition
%
Wind Dir Definition
10's deg

Wind Spd Definition
km/h
Visibility Definition
km
Stn Press Definition
kPa
Hmdx Definition


Wind Chill Definition


Weather Definition


TIME
00:00 Legend Double Dagger -3.9 -7.7 75 29 21 16.1 100.98   -10 LegendNANA
01:00 Legend Double Dagger -3.9 -6.5 82 29 26 16.1 100.99   -11 Snow
02:00 Legend Double Dagger -4.0 -7.0 80 28 30 16.1 101.00   -12 LegendNANA
03:00 Legend Double Dagger -3.5 -7.5 74 29 24 16.1 101.05   -10 LegendNANA
04:00 Legend Double Dagger -3.6 -7.0 78 28 26 16.1 101.05   -11 Snow
05:00 Legend Double Dagger -3.5 -8.6 68 28 24 16.1 101.07   -10 LegendNANA
06:00 Legend Double Dagger -3.6 -8.3 70 28 30 16.1 101.07   -11 LegendNANA
07:00 Legend Double Dagger -3.7 -8.6 69 28 34 16.1 101.08   -12 Snow
08:00 Legend Double Dagger -4.0 -9.1 68 29 30 16.1 101.12   -12 Snow
09:00 Legend Double Dagger -4.1 -7.5 77 29 21 12.9 101.13   -11 Snow
10:00 Legend Double Dagger -4.3 -6.8 83 30 26 16.1 101.12   -12 Snow
11:00 Legend Double Dagger -4.1 -6.4 84 28 28 16.1 101.11   -12 Snow
12:00 Legend Double Dagger -4.2 -7.0 81 28 28 16.1 101.09   -12 Snow
13:00 Legend Double Dagger -3.9 -6.9 80 27 30 16.1 101.09   -12 Snow
14:00 Legend Double Dagger -3.6 -7.3 75 28 28 16.1 101.12   -11 LegendNANA
15:00 Legend Double Dagger -3.4 -7.4 74 28 28 16.1 101.12   -11 LegendNANA
16:00 Legend Double Dagger -3.7 -7.7 74 28 24 16.1 101.12   -11 LegendNANA
17:00 Legend Double Dagger -3.6 -7.8 73 28 34 16.1 101.11   -12 Snow
18:00 Legend Double Dagger -3.8 -8.1 72 28 28 16.1 101.15   -11 Snow
19:00 Legend Double Dagger -3.9 -7.5 76 27 26 16.1 101.17   -11 Snow
20:00 Legend Double Dagger -3.9 -8.4 71 29 24 16.1 101.17   -11 Snow
21:00 Legend Double Dagger -4.1 -8.4 72 26 21 16.1 101.14   -11 LegendNANA
22:00 Legend Double Dagger -4.0 -8.2 73 28 11 16.1 101.16   -8 LegendNANA
23:00 Legend Double Dagger -4.2 -8.2 74 30 11 16.1 101.16   -9 LegendNANA

Notes on Data Quality.

Legend

  • E = Estimated
  • M = Missing
  • NA = Not Available
  • ‡ = Partner data that is not subject to review by the National Climate Archives
Date modified: